This is the latest recevied weather packets stored in our database for station/object W5CRT. If no packets are shown the sender has not sent any weather packets the latest 10 day(s).
| Time | Temp. | Humidity | Pressure | Rain* | Wind** | Luminosity | Snow |
|---|---|---|---|---|---|---|---|
| 1778098816 | 14.44° C | 81% | 1012.5 hPa | 0 mm | - | 221 W/m² | - |
| 1778098514 | 14.44° C | 80% | 1012.8 hPa | 0 mm | - | 121 W/m² | - |
| 1778098210 | 14.44° C | 81% | 1012.4 hPa | 0 mm | - | 172 W/m² | - |
| 1778097907 | 14.44° C | 81% | 1012.3 hPa | 0 mm | - | 237 W/m² | - |
| 1778097603 | 14.44° C | 82% | 1012.2 hPa | 0 mm | - | 293 W/m² | - |
| 1778097301 | 13.89° C | 83% | 1012.3 hPa | 0 mm | - | 223 W/m² | - |
| 1778096996 | 13.89° C | 82% | 1012.6 hPa | 0 mm | - | 159 W/m² | - |
| 1778096694 | 13.89° C | 82% | 1012.3 hPa | 0 mm | - | 173 W/m² | - |
| 1778096391 | 13.89° C | 83% | 1012.4 hPa | 0 mm | - | 184 W/m² | - |
| 1778096088 | 13.89° C | 83% | 1012.4 hPa | 0 mm | - | 203 W/m² | - |
| 1778095784 | 13.89° C | 83% | 1012.6 hPa | 0 mm | - | 173 W/m² | - |
| 1778095482 | 13.33° C | 84% | 1012.6 hPa | 0 mm | - | 156 W/m² | - |
| 1778095178 | 13.33° C | 84% | 1013 hPa | 0 mm | - | 96 W/m² | - |
| 1778094875 | 13.33° C | 84% | 1012.7 hPa | 0 mm | - | 109 W/m² | - |
| 1778094571 | 13.33° C | 85% | 1012.7 hPa | 0 mm | - | 115 W/m² | - |
| 1778094268 | 13.33° C | 84% | 1012.5 hPa | 0 mm | - | 105 W/m² | - |
| 1778093965 | 13.33° C | 84% | 1012.8 hPa | 0 mm | - | 92 W/m² | - |
| 1778093662 | 13.33° C | 84% | 1012.5 hPa | 0 mm | - | 98 W/m² | - |
| 1778093359 | 13.33° C | 84% | 1012.5 hPa | 0 mm | - | 119 W/m² | - |
| 1778093056 | 13.33° C | 84% | 1012.3 hPa | 0 mm | - | 181 W/m² | - |
| 1778092754 | 13.33° C | 85% | 1011.8 hPa | 0 mm | - | 182 W/m² | - |
| 1778092448 | 13.33° C | 84% | 1011.5 hPa | 0 mm | - | 204 W/m² | - |
| 1778092146 | 13.33° C | 85% | 1011.3 hPa | 0 mm | - | 163 W/m² | - |
| 1778091843 | 13.33° C | 85% | 1010.9 hPa | 0 mm | - | 183 W/m² | - |
| 1778091540 | 13.33° C | 86% | 1010.6 hPa | 0 mm | - | 233 W/m² | - |
* Rain latest hour (hover to see other rain measurements)
** Current wind speed in m/s (hover to see current wind gust speed)